SCP
0 0 -0 -0 -0 0 0 0 0 0 0 0 0 0 0 0 0 0 0 0 0 0 0 0 0 0 0 0 0 0 0 0 0 0 0 0 0 0 0 0 0 0 0
0 0 0 0 0 0 0 0 0 0 0 0 0 0 0 0 0 0 0 0 0 0 0 0 0 0 0 0 0 0 0 0 0 0 0 0 0 0 0 0 0 0 0
0 0 0 0 0 0 0 0 0 0 0 0 0 0 0 0 0 0 0 0 0 0 0 0 0 0 0 0 0 0 0 0 0 0 0 0 0 0 0 0 0 0 0
0 0 0 0 0 0 0 0 0 0 0 0 0 0 0 0 0 0 0 0 0 0 0 0 0 0 0 0 0 0 0 0 0 0 0 0 0 0 0 0 0 0 0
0 0 0 0 0 0 0 0 0 0 0 0 0 0 0 0 0 0 0 0 0 0 0 0 0 0 0 0 0 0 0 0 0 0 0 0 0 0 0 0 0 0 0
0 0 0 0 0 0 0 0 0 0 0 0 0 0 0 0 0 0 0 0 0 0 0 0 0 0 0 0 0 0 0 0 0 0 0 0 0 0 0 0 0 0 0
0 0 0 0 0 0 0 0 0 0 0 0 0 0 0 0 0 0 0 0 0 0 0 0 0 0 0 0 0 0 0 0 0 0 0 0 0 0 0 0 0 0 0
0 0 0 0 0 0 0 0 0 0 0 0 0 0 0 0 0 0 0 0 0 0 0 0 0 0 0 0 0 0 0 0 0 0 0 0 0 0 0 0 0 0 0
0 0 0 0 0 0 0 0 0 0 0 0 0 0 0 0 0 0 0 0 0 0 0 0 0 0 0 0 0 0 0 0 0 0 0 0 0 0 0 0 0 0 0
0 0 0 0 0 0 0 0 0 0 0 0 0 0 0 0 0 0 0 0 0 0 0 0 0 0 0 0 0 0 0 0 0 0 0 0 0 0 0 0 0 0 0
0 0 0 0 0 0 0 0 0 0 0 0 0 0 0 0 0 0 0 0 0 0 0 0 0 0 0 0 0 0 0 0 0 0 0 0 0 0 0 0 0 0 0
0 0 0 0 0 0 0 0 0 0 0 0 0 0 0 0 0 0 0 0 0 0 0 0 0 0 0 0 0 0 0 0 0 0 0 0 0 0 0 0 0 0 0
0 0 0 0 0 0 0 0 0 0 0 0 0 0 0 0 0 0 0 0 0 0 0 0 0 0 0 0 0 0 0 0 0 0 0 0 0 0 0 0 0 0 0
0 0 0 0 0 0 0 0 0 0 0 0 0 0 0 0 0 0 0 0 0 0 0 0 0 0 0 0 0 0 0 0 0 0 0 0 0 0 0 0 0 0 0
0 0 0 0 0 0 0 0 0 0 0 0 0 0 0 0 0 0 0 0 0 0 0 0 0 0 0 0 0 0 0 0 0 0 0 0 0 0 0 0 0 0 0
0 0 0 0 0 0 0 0 0 0 0 0 0 0 0 0 0 0 0 0 0 0 0 0 0 0 0 0 0 0 0 0 0 0 0 0 0 0 0 0 0 0 0
0 0 0 0 0 0 0 0 0 0 0 0 0 0 0 0 0 0 0 0 0 0 0 0 0 0 0 0 0 0 0 0 0 0 0 0 0 0 0 0 0 0 0
0 0 0 0 0 0 0 0 0 0 0 0 0 0 0 0 0 0 0 0 0 0 0 0 0 0 0 0 0 0 0 0 0 0 0 0 0 0 0 0 0 0 0
0 0 0 0 0 0 0 0 0 0 0 0 0 0 0 0 0 0 0 0 0 0 0 0 0 0 0 0 0 0 0 0 0 0 0 0 0 0 0 0 0 0 0
0 0 0 0 0 0 0 0 0 0 0 0 0 0 0 0 0 0 0 0 0 0 0 0 0 0 0 0 0 0 0 0 0 0 0 0 0 0 0 0 0 0 0
0 0 0 0 0 0 0 0 0 0 0 0 0 0 0 0 0 0 0 0 0 0 0 0 0 0 0 0 0 0 0 0 0 0 0 0 0 0 0 0 0 0 0
0 0 0 0 0 0 0 0 0 0 0 0 0 0 0 0 0 0 0 0 0 0 0 0 0 0 0 0 0 0 0 0 0 0 0 0 0 0 0 0 0 0 0
0 0 0 0 0 0 0 0 0 0 0 0 0 0 0 0 0 0 0 0 0 0 0 0 0 0 0 0 0 0 0 0 0 0 0 0 0 0 0 0 0 0 0
0 0 0 0 0 0 0 0 0 0 0 0 0 0 0 0 0 0 0 0 0 0 0 0 0 0 0 0 0 0 0 0 0 0 0 0 0 0 0 0 0 0 0
0 0 0 0 0 0 0 0 0 0 0 0 0 0 0 0 0 0 0 0 0 0 0 0 0 0 0 0 0 0 0 0 0 0 0 0 0 0 0 0 0 0 0
0 0 0 0 0 0 0 0 0 0 0 0 0 0 0 0 0 0 0 0 0 0 0 0 0 0 0 0 0 0 0 0 0 0 0 0 0 0 0 0 0 0 0
Wind_Speed
14 14 13 13 13 12 11 12 13 13 14 15 15 17 18 19 19 19 20 19 20 19 17 18 18 15 11 10 9 8 8 7 7 5 4 7 11 11 9 7 5 6 5
13 13 13 13 13 13 13 13 13 13 13 14 15 16 17 18 19 20 21 21 21 21 20 19 20 15 16 13 11 12 10 9 8 8 6 7 9 10 9 8 6 5 6
13 13 13 14 14 15 15 14 13 12 13 13 14 16 17 18 19 20 21 21 21 21 21 21 21 19 19 14 15 13 11 9 8 7 7 5 5 7 8 7 8 7 7
13 13 13 14 14 15 15 14 14 13 13 13 13 16 16 17 18 18 19 20 21 20 20 20 21 22 21 19 15 15 12 12 10 8 7 6 5 7 7 7 7 7 6
13 13 13 13 14 14 14 14 14 13 12 13 13 14 15 15 15 17 18 19 20 20 19 19 20 20 22 20 15 17 16 13 12 11 8 7 8 8 8 7 6 5 5
12 12 12 13 13 14 14 15 14 14 13 13 13 13 15 12 17 24 21 18 18 19 19 19 18 18 19 26 26 25 24 20 18 14 11 11 12 9 8 8 7 5 4
11 11 11 12 13 14 14 15 15 14 14 13 13 13 15 17 23 25 27 19 18 18 19 17 15 15 18 20 25 28 26 27 25 18 16 14 13 13 13 11 9 6 4
11 11 11 11 12 14 15 15 15 14 14 13 13 14 15 16 22 24 24 22 20 20 19 18 18 17 19 21 18 19 18 19 21 15 12 11 10 12 12 10 9 6 4
13 12 11 11 12 14 15 16 15 15 15 14 13 14 15 16 20 23 24 14 17 19 18 17 19 19 25 29 21 20 19 16 20 19 14 13 15 17 14 9 9 7 5
14 13 13 12 11 14 15 17 16 15 16 15 15 14 15 15 19 23 24 13 16 15 14 15 18 19 25 32 23 21 21 18 16 16 15 15 14 16 18 12 10 9 5
14 14 14 13 13 15 16 15 16 16 16 16 17 15 15 15 18 22 25 15 15 14 13 13 14 26 28 31 27 18 20 17 16 16 14 13 12 11 12 10 9 8 7
14 15 15 14 14 14 16 17 16 16 17 17 16 16 13 12 14 18 25 26 22 16 13 12 13 24 28 30 25 21 24 19 12 13 12 12 12 11 9 9 9 8 7
14 15 15 17 16 16 16 18 16 15 14 14 13 14 12 10 11 20 23 26 28 18 12 16 18 23 26 24 28 27 21 14 13 13 13 11 10 10 9 8 8 7 5
17 19 18 18 19 17 15 14 14 14 14 14 14 14 13 11 10 9 10 12 18 18 13 14 22 24 22 19 19 21 15 13 12 12 11 10 10 10 9 8 8 7 5
21 20 20 19 19 17 17 15 17 16 17 17 15 14 14 14 13 15 11 10 10 11 10 10 10 11 14 13 13 13 13 12 12 10 11 11 10 9 8 8 7 7 5
20 19 16 16 15 16 16 17 24 26 30 33 33 29 21 25 26 24 22 23 22 18 13 12 12 12 13 13 13 12 12 12 11 11 11 11 10 10 9 8 7 6 6
20 19 16 16 16 16 16 16 17 19 25 30 31 32 32 31 31 28 25 23 23 21 13 12 12 13 12 12 12 11 11 12 11 11 11 10 10 10 9 8 7 6 5
20 20 19 16 16 15 15 15 15 16 16 14 18 25 29 29 29 27 25 20 14 15 12 11 11 11 11 12 12 11 11 11 10 10 10 10 10 9 9 8 7 7 5
19 16 15 15 15 15 15 15 15 16 16 15 13 16 21 23 24 24 22 14 11 11 11 11 10 10 10 10 11 11 11 11 11 10 10 10 9 9 8 7 6 7 5
16 21 20 16 15 14 14 14 14 14 14 13 13 13 12 11 10 11 12 10 9 8 9 10 9 9 10 10 10 10 10 10 11 10 10 9 8 8 8 8 6 6 5
15 16 20 16 14 13 13 13 12 12 12 12 12 15 19 11 9 9 7 7 7 6 8 9 9 10 10 9 9 11 12 10 10 10 10 9 8 7 6 6 6 5 4
14 14 14 13 12 11 11 11 11 11 12 13 12 13 17 10 7 5 2 3 5 6 8 10 9 9 9 10 11 11 11 11 10 10 10 9 8 7 6 6 5 5 5
14 14 14 13 11 11 10 9 9 10 11 11 10 7 5 3 1 3 5 6 8 9 9 9 10 9 8 8 8 9 10 11 10 11 11 9 8 7 6 6 6 5 5
13 13 13 12 10 8 7 6 6 6 6 5 4 3 2 4 5 7 7 7 8 8 8 8 9 12 14 10 8 7 8 9 10 9 11 9 8 7 6 5 5 6 6
12 12 12 11 10 9 8 7 7 6 5 5 5 5 6 6 7 7 7 7 9 9 10 9 9 11 14 14 11 9 12 13 10 8 7 7 7 7 6 6 5 6 6
11 12 11 10 10 10 9 9 8 8 8 7 7 7 7 7 7 7 7 7 8 9 9 8 11 12 13 11 12 12 12 12 11 9 7 6 6 6 6 5 7 7 7
Wind_Direction
357 355 353 353 348 339 324 308 293 278 264 248 236 227 224 221 218 218 220 217 213 212 209 207 207 200 195 192 188 187 190 194 187 155 163 165 178 186 192 211 234 249 250
349 347 347 350 350 348 341 328 312 294 276 258 245 235 228 224 220 219 220 220 216 214 211 208 208 200 201 194 190 191 190 191 187 172 168 174 188 194 199 212 225 240 247
344 343 345 347 346 345 342 335 324 307 289 270 252 243 235 228 223 221 222 222 220 218 213 210 208 200 202 197 194 191 187 184 186 170 163 164 177 186 197 211 223 232 238
337 338 341 342 340 338 335 334 329 316 299 281 261 250 242 235 228 223 223 225 224 222 219 215 210 205 203 196 194 192 182 179 181 178 168 167 172 171 189 200 205 212 224
330 330 333 333 333 331 331 330 327 320 306 290 274 259 248 241 234 228 224 226 226 223 221 218 216 210 207 198 192 189 182 181 180 185 185 177 183 175 191 185 197 199 228
318 320 323 325 327 327 326 324 323 321 314 301 283 268 257 246 238 232 227 226 226 225 222 220 217 211 207 205 202 194 190 185 183 184 189 195 195 187 172 172 175 186 218
303 306 312 317 319 320 320 319 318 318 315 307 293 279 267 258 249 241 232 227 227 227 224 219 215 211 205 206 207 203 203 204 194 186 189 193 185 182 172 175 181 185 192
289 292 299 307 310 313 314 313 313 311 308 305 298 286 276 266 257 250 239 229 231 230 226 220 216 210 203 200 198 200 201 205 203 198 196 190 181 169 170 168 169 182 217
284 287 292 298 301 305 306 306 307 306 302 298 293 286 277 270 261 254 247 236 233 231 227 222 218 214 206 200 196 196 196 201 202 193 190 177 168 163 160 154 163 173 201
284 286 289 291 291 294 297 299 298 297 293 293 287 282 276 270 262 255 248 241 237 231 224 221 216 213 206 200 198 195 195 190 182 180 182 178 174 175 177 178 174 181 181
289 286 284 286 289 290 291 291 292 291 290 287 284 279 273 267 263 256 247 236 237 232 223 218 217 213 209 206 201 200 196 178 177 176 176 178 179 181 186 186 185 188 188
291 288 289 290 290 288 287 287 286 285 283 281 279 278 271 262 255 254 248 242 238 233 225 216 212 212 209 207 204 200 192 175 174 176 176 178 177 177 176 176 180 190 201
299 293 291 290 287 284 282 282 282 278 274 274 274 274 273 265 255 252 250 248 244 237 223 211 202 205 206 207 204 195 185 177 176 178 179 177 172 165 158 160 167 178 203
298 295 293 291 288 284 279 275 272 270 270 270 269 270 271 267 258 247 245 247 247 241 223 204 198 201 201 199 196 192 186 180 178 177 171 160 152 152 156 159 164 168 187
296 293 291 287 285 284 278 270 270 263 262 268 270 271 272 269 262 250 241 241 237 225 191 176 181 187 194 193 188 184 178 170 170 166 157 152 152 153 156 158 161 165 180
293 291 289 287 284 282 281 280 273 269 271 269 266 265 266 263 265 263 254 247 243 221 187 181 183 187 189 187 181 174 170 168 164 159 156 154 155 157 156 157 161 172 185
287 288 286 283 281 279 277 278 281 281 275 275 273 272 268 266 263 258 252 247 242 220 198 192 188 186 184 181 175 170 168 163 158 157 154 153 152 154 156 159 164 173 184
286 284 280 277 275 273 272 272 273 277 282 278 277 277 277 273 265 256 245 237 235 220 201 195 191 185 178 174 170 165 159 154 154 153 151 150 152 154 155 159 165 173 180
287 281 277 274 271 269 268 268 268 270 272 277 279 279 276 274 270 259 239 221 219 215 195 191 185 176 167 165 161 158 155 155 154 150 147 147 149 150 152 157 163 170 185
287 283 283 278 272 267 264 263 264 266 268 271 273 275 275 270 263 255 226 206 207 207 185 177 167 154 148 149 149 148 149 149 149 144 141 142 145 149 153 160 168 177 192
292 289 287 282 275 268 264 262 262 264 266 269 270 271 272 269 266 262 232 197 191 181 160 151 143 139 136 138 142 147 148 147 145 141 140 142 146 149 155 163 173 188 203
296 295 293 289 283 273 268 264 261 261 263 266 268 274 280 274 264 261 227 143 123 119 126 128 129 132 139 146 148 149 149 147 144 142 141 142 147 151 156 166 179 194 208
306 306 305 301 294 284 273 265 260 260 262 266 272 277 286 298 352 76 85 91 99 106 113 121 126 128 129 134 142 147 149 149 147 147 145 147 151 157 163 174 185 200 218
316 318 321 324 324 319 309 299 289 284 284 290 305 332 15 54 69 79 85 90 96 101 106 113 122 131 130 125 121 119 120 125 130 139 143 147 151 156 165 179 196 210 227
329 332 337 342 347 349 351 355 359 2 8 15 26 40 50 60 68 74 79 85 91 95 100 104 112 120 122 118 114 113 120 121 120 124 132 141 152 161 172 189 205 218 231
341 344 348 352 357 2 6 10 15 19 24 29 35 42 50 59 67 74 79 86 92 92 93 95 105 110 112 108 113 118 122 127 132 136 138 148 161 176 185 204 218 229 242